Weather History for Lincoln, IL

Change the Weather History Date:

Thursday, February 7, 2013

  Actual Average (KSPI) Record (KSPI)
Temperature  
Mean Temperature 38 °F 29 °F  
Max Temperature 41 °F 37 °F 67 °F (2009)
Min Temperature 34 °F 20 °F -13 °F (2014)
Degree Days  
Heating Degree Days 28 36  
Month to date heating degree days 257  
Since 1 July heating degree days 3583  
Cooling Degree Days 0 0  
Month to date cooling degree days 0  
Year to date cooling degree days 0  
Moisture  
Dew Point 35 °F    
Average Humidity 91    
Maximum Humidity 98    
Minimum Humidity 84    
Precipitation  
Precipitation 0.23 in 0.06 in 1.13 in (1999)
Month to date precipitation 0.39  
Year to date precipitation 2.21  
Snow  
Snow 0.00 in 0.20 in 1.60 in (1933)
Month to date snowfall 1.5  
Since 1 July snowfall 14.1  
Snow Depth -    
Sea Level Pressure  
Sea Level Pressure 29.96 in    
Wind  
Wind Speed 7 mph (South)    
Max Wind Speed 13 mph    
Max Gust Speed 23 mph    
Visibility 5 miles    
Events Rain    
T = Trace of Precipitation, MM = Missing Value Source: NWS Daily Summary

Daily Weather History Graph

Daily Weather History Graph

Search for Another Location

Airport:

Trip Planner

Search our weather history database for the weather conditions in past years. The results will help you decide how hot, cold, wet, or windy it might be!

Date:

Astronomy

Feb. 07, 2013 Rise Set
Actual Time 6:59 AM CST 5:23 PM CST
Civil Twilight 6:31 AM CST 5:52 PM CST
Nautical Twilight 5:59 AM CST 6:24 PM CST
Astronomical Twilight 5:27 AM CST 6:55 PM CST
Moon 4:39 AM CST (2/7) 2:48 PM CST (2/7)
Length of Visible Light 11h 20m
Length of Day
10h 24m
Waning Crescent, 9% of the Moon is Illuminated
Feb 7
Waning Crescent
Feb 10
New
Feb 17
First Quarter
Feb 25
Full
Mar 4
Last Quarter

Hourly Weather History & Observations

Time (CST) Temp. Windchill Dew Point Humidity Pressure Visibility Wind Dir Wind Speed Gust Speed Precip Events Conditions
12:15 AM 34.9 °F 27.7 °F 31.6 °F 88% 30.08 in 7.0 mi SSE 9.2 mph - N/A   Scattered Clouds
12:35 AM 34.7 °F 25.9 °F 31.6 °F 89% 30.06 in 7.0 mi SSE 12.7 mph - N/A   Clear
12:55 AM 34.7 °F 25.9 °F 31.6 °F 89% 30.05 in 7.0 mi SSE 12.7 mph - N/A   Clear
1:15 AM 34.9 °F 26.6 °F 31.6 °F 88% 30.04 in 7.0 mi SSE 11.5 mph - N/A   Clear
1:35 AM 35.1 °F 26.4 °F 31.6 °F 87% 30.03 in 7.0 mi SSE 12.7 mph - N/A   Clear
1:55 AM 35.1 °F 27.9 °F 31.5 °F 87% 30.04 in 7.0 mi SSE 9.2 mph - N/A   Clear
2:15 AM 34.7 °F 29.6 °F 31.6 °F 89% 30.04 in 7.0 mi SSE 5.8 mph - N/A   Clear
2:35 AM 35.1 °F 29.3 °F 31.8 °F 88% 30.04 in 7.0 mi SSE 6.9 mph - N/A   Mostly Cloudy
2:55 AM 35.4 °F 32.6 °F 31.8 °F 87% 30.04 in 7.0 mi SSE 3.5 mph - N/A   Overcast
3:15 AM 35.6 °F 30.7 °F 32.0 °F 87% 30.04 in 7.0 mi SSE 5.8 mph - N/A   Overcast
3:35 AM 35.6 °F - 31.8 °F 86% 30.04 in 7.0 mi Calm Calm - N/A   Overcast
3:55 AM 36.0 °F 33.3 °F 31.8 °F 85% 30.04 in 7.0 mi SE 3.5 mph - N/A   Overcast
4:15 AM 36.1 °F 33.5 °F 31.6 °F 84% 30.04 in 7.0 mi SE 3.5 mph - N/A   Overcast
4:35 AM 36.1 °F 31.4 °F 31.8 °F 84% 30.03 in 7.0 mi SE 5.8 mph - N/A   Overcast
4:55 AM 35.6 °F 29.9 °F 32.0 °F 87% 30.02 in 7.0 mi SE 6.9 mph - N/A   Overcast
5:15 AM 35.8 °F 30.1 °F 32.0 °F 86% 30.02 in 7.0 mi SE 6.9 mph - N/A   Overcast
5:35 AM 35.6 °F 31.7 °F 32.0 °F 87% 30.02 in 7.0 mi East 4.6 mph - N/A   Overcast
5:55 AM 35.6 °F 29.2 °F 32.0 °F 87% 30.01 in 5.0 mi SE 8.1 mph - N/A   Overcast
6:15 AM 35.6 °F 29.2 °F 32.0 °F 87% 30.00 in 5.0 mi SE 8.1 mph - N/A   Overcast
6:35 AM 35.6 °F 29.2 °F 32.0 °F 87% 30.00 in 5.0 mi SE 8.1 mph - N/A   Overcast
6:55 AM 35.6 °F 30.7 °F 32.0 °F 87% 30.00 in 5.0 mi SE 5.8 mph - N/A   Overcast
7:15 AM 35.6 °F 32.8 °F 32.0 °F 87% 30.01 in 5.0 mi East 3.5 mph - N/A   Overcast
7:35 AM 36.0 °F 33.3 °F 32.0 °F 86% 30.01 in 5.0 mi ENE 3.5 mph - N/A   Overcast
7:55 AM 36.3 °F - 32.4 °F 86% 30.01 in 4.0 mi Calm Calm - N/A   Overcast
8:15 AM 36.5 °F 33.9 °F 32.4 °F 85% 30.01 in 4.0 mi East 3.5 mph - N/A   Haze
8:35 AM 36.5 °F - 32.5 °F 86% 30.01 in 4.0 mi Calm Calm - N/A   Overcast
8:55 AM 36.7 °F 32.9 °F 32.5 °F 85% 30.00 in 4.0 mi ESE 4.6 mph - N/A   Overcast
9:15 AM 36.9 °F 31.4 °F 32.7 °F 85% 29.99 in 4.0 mi ESE 6.9 mph - N/A Rain Light Rain
9:35 AM 37.4 °F 34.9 °F 32.9 °F 84% 29.98 in 4.0 mi ESE 3.5 mph - N/A   Overcast
9:55 AM 37.4 °F 32.8 °F 33.1 °F 84% 29.97 in 4.0 mi SE 5.8 mph - N/A Rain Light Rain
10:15 AM 37.8 °F 32.5 °F 33.6 °F 85% 29.97 in 4.0 mi SE 6.9 mph - N/A   Overcast
10:35 AM 38.3 °F 34.8 °F 34.7 °F 87% 29.97 in 3.0 mi SSE 4.6 mph - N/A Rain Light Rain
10:55 AM 39.2 °F 37.0 °F 35.6 °F 87% 29.96 in 3.0 mi SSE 3.5 mph - 0.01 in Rain Light Rain
11:15 AM 39.6 °F 35.4 °F 35.8 °F 86% 29.95 in 3.0 mi SSE 5.8 mph - 0.01 in Rain Light Rain
11:35 AM 39.2 °F 35.9 °F 36.1 °F 89% 29.93 in 3.0 mi SE 4.6 mph - 0.03 in Rain Rain
11:55 AM 39.4 °F 36.1 °F 36.9 °F 91% 29.92 in 2.5 mi SSE 4.6 mph - 0.04 in Rain Light Rain
12:15 PM 39.6 °F 36.3 °F 37.4 °F 92% 29.90 in 3.0 mi SSE 4.6 mph - 0.01 in Rain Light Rain
12:35 PM 40.3 °F 37.1 °F 38.3 °F 93% 29.90 in 2.5 mi South 4.6 mph - 0.02 in Rain Light Rain
12:55 PM 40.5 °F 38.4 °F 38.5 °F 93% 29.90 in 2.0 mi South 3.5 mph - 0.03 in Rain Rain
1:15 PM 40.5 °F - 38.8 °F 94% 29.88 in 2.0 mi Calm Calm - 0.03 in Rain Light Rain
1:35 PM 40.6 °F 37.5 °F 39.2 °F 95% 29.89 in 1.8 mi South 4.6 mph - 0.04 in Rain Rain
1:55 PM 40.6 °F 38.6 °F 39.2 °F 95% 29.87 in 1.5 mi South 3.5 mph - 0.06 in Rain Rain
2:15 PM 41.0 °F 38.0 °F 39.7 °F 95% 29.87 in 1.8 mi SSW 4.6 mph - 0.01 in Rain Light Rain
2:35 PM 41.0 °F 39.0 °F 39.7 °F 95% 29.88 in 1.5 mi SSW 3.5 mph - 0.02 in Rain Light Rain
2:55 PM 41.2 °F - 40.1 °F 96% 29.86 in 1.2 mi Calm Calm - 0.02 in Rain Light Rain
3:15 PM 41.4 °F - 40.3 °F 96% 29.86 in 1.2 mi Calm Calm - 0.01 in Rain Light Rain
3:35 PM 41.5 °F 39.6 °F 40.5 °F 96% 29.85 in 1.5 mi SW 3.5 mph - 0.02 in Rain Light Rain
3:55 PM 41.5 °F - 40.5 °F 96% 29.85 in 1.5 mi Calm Calm - 0.03 in Rain Light Rain
4:15 PM 41.5 °F - 40.5 °F 96% 29.85 in 1.5 mi Calm Calm - 0.01 in Rain Light Rain
4:35 PM 41.2 °F 39.2 °F 40.3 °F 97% 29.85 in 1.2 mi West 3.5 mph - 0.02 in Rain Light Rain
4:55 PM 41.2 °F 39.2 °F 40.3 °F 97% 29.86 in 1.8 mi West 3.5 mph - 0.03 in Rain Rain
5:15 PM 41.0 °F 39.0 °F 40.1 °F 97% 29.87 in 2.5 mi West 3.5 mph - N/A Rain Rain
5:35 PM 40.5 °F - 39.6 °F 97% 29.88 in 2.5 mi Calm Calm - N/A   Overcast
5:55 PM 40.1 °F 34.7 °F 39.2 °F 97% 29.89 in 2.5 mi WNW 8.1 mph - N/A   Drizzle
6:15 PM 39.7 °F 35.6 °F 38.8 °F 97% 29.90 in 1.8 mi WNW 5.8 mph - 0.01 in   Drizzle
6:35 PM 39.4 °F 36.1 °F 38.5 °F 97% 29.91 in 1.8 mi WNW 4.6 mph - 0.01 in   Light Drizzle
6:55 PM 39.2 °F 37.0 °F 38.3 °F 97% 29.92 in 2.0 mi WNW 3.5 mph - 0.01 in   Light Drizzle
7:15 PM 38.7 °F 35.2 °F 38.1 °F 98% 29.92 in 1.8 mi WNW 4.6 mph - N/A   Overcast
7:35 PM 38.5 °F 33.4 °F 37.8 °F 97% 29.92 in 2.0 mi WNW 6.9 mph - N/A   Overcast
7:55 PM 38.5 °F 32.7 °F 37.8 °F 97% 29.93 in 2.5 mi WNW 8.1 mph - N/A   Overcast
8:15 PM 38.3 °F 33.2 °F 37.6 °F 97% 29.93 in 3.0 mi NW 6.9 mph - N/A   Overcast
8:35 PM 38.3 °F 31.9 °F 37.4 °F 97% 29.94 in 4.0 mi NW 9.2 mph - N/A   Overcast
8:55 PM 38.3 °F 32.5 °F 37.4 °F 97% 29.95 in 4.0 mi NW 8.1 mph - N/A   Overcast
9:15 PM 38.3 °F 31.9 °F 37.4 °F 97% 29.96 in 5.0 mi NW 9.2 mph - N/A   Overcast
9:35 PM 37.9 °F 31.5 °F 37.0 °F 97% 29.97 in 5.0 mi NW 9.2 mph 16.1 mph N/A   Overcast
9:55 PM 37.4 °F 30.3 °F 36.1 °F 95% 29.97 in 10.0 mi NNW 10.4 mph 23.0 mph N/A   Overcast
10:15 PM 37.0 °F 30.4 °F 35.6 °F 95% 29.97 in 10.0 mi NNW 9.2 mph 20.7 mph N/A   Overcast
10:35 PM 36.7 °F 28.9 °F 34.9 °F 93% 29.98 in 10.0 mi NW 11.5 mph 16.1 mph N/A   Overcast
10:55 PM 36.7 °F 30.5 °F 34.9 °F 93% 29.98 in 10.0 mi NW 8.1 mph 18.4 mph N/A   Overcast
11:15 PM 36.5 °F 30.3 °F 34.7 °F 93% 29.99 in 10.0 mi NW 8.1 mph - N/A   Overcast
11:35 PM 36.5 °F 29.2 °F 34.7 °F 93% 30.00 in 10.0 mi NW 10.4 mph - N/A   Overcast
11:55 PM 36.0 °F 29.0 °F 34.2 °F 93% 30.00 in 10.0 mi NW 9.2 mph - N/A   Overcast